Home > Weather > Sedona > Past weeks

Flag for USA Past Weather in Sedona, Arizona, USA — Yesterday and Last 2 Weeks

Now
81 °F

Pleasantly warm.


Feels Like: 79 °F
Forecast: 77 / 94 °F
Wind: No wind

Location: Sedona Airport

Current Time: Jun 28, 2016 at 1:00:45 AM

Latest Report: Jun 28, 2016 at 12:10 AM


Visibility: 10 mi

Pressure: 30.18 "Hg (26.08 "Hg at 1282m altitude)

Humidity: 26%

Dew Point: 43 °F

Location of SedonaLocation

Past Weather in Sedona — Graph

°F

Sedona Temperature Yesterday

Maximum temperature yesterday: 97 °F (at 11:50 AM)
Minimum temperature yesterday: 73 °F (at 4:50 AM)
Average temperature yesterday: 83 °F

High & Low Weather Summary for the Past Weeks

 TemperatureHumidityPressure
High109 °F (Jun 20, 1:50 PM)33% (Jun 27, 4:50 AM)30.27 "Hg (Jun 27, 4:50 AM)
Low61 °F (Jun 14, 4:10 AM)4% (Jun 18, 1:10 PM)29.97 "Hg (Jun 14, 4:50 PM)
Average84 °F17%30.13 "Hg
* Reported Jun 13 9:35 AM — Jun 27 11:50 PM, Sedona, Weather by CustomWeather, © 2016

Note: Actual official high and low records may vary slightly from our data, if they occured in-between our weather recording intervals... More about our weather records

Advertising

Sedona Weather History for the Previous 24 Hours

Scroll right to see more
 ConditionsComfort  
Time TempWeatherWind HumidityBarometerVisibility
11:50 PM
Mon, Jun 27
79 °FPleasantly warm.No wind28%30.18 "Hg10 mi
11:30 PM79 °FPleasantly warm.3 mph28%30.18 "Hg10 mi
11:10 PM81 °FPleasantly warm.No wind24%30.18 "Hg10 mi
10:50 PM81 °FPleasantly warm.5 mph26%30.18 "Hg10 mi
10:10 PM81 °FPleasantly warm.6 mph26%30.19 "Hg10 mi
9:50 PM81 °FPleasantly warm.No wind26%30.19 "Hg10 mi
9:10 PM81 °FPleasantly warm.7 mph26%30.19 "Hg10 mi
8:50 PM82 °FPleasantly warm.No wind25%30.19 "Hg10 mi
8:30 PM82 °FPleasantly warm.9 mph25%30.19 "Hg10 mi
8:10 PM82 °FPleasantly warm.6 mph25%30.19 "Hg10 mi
7:50 PM82 °FPleasantly warm.8 mph25%30.19 "Hg10 mi
7:30 PM84 °FPleasantly warm.7 mph23%30.20 "Hg10 mi
7:10 PM84 °FPleasantly warm.6 mph25%30.19 "Hg10 mi
6:50 PM86 °FPleasantly warm.7 mph24%30.19 "Hg10 mi
6:10 PM86 °FPleasantly warm.7 mph24%30.16 "Hg10 mi
5:50 PM86 °FPleasantly warm.6 mph24%30.14 "Hg10 mi
5:10 PM86 °FPleasantly warm.9 mph22%30.15 "Hg10 mi
4:50 PM86 °FPleasantly warm.14 mph22%30.18 "Hg10 mi
4:10 PM88 °FPleasantly warm.15 mph21%30.17 "Hg10 mi
3:50 PM91 °FHot.8 mph17%30.15 "Hg10 mi
3:30 PM95 °FExtremely hot.10 mph15%30.15 "Hg10 mi
3:10 PM93 °FExtremely hot.6 mph16%30.15 "Hg10 mi
2:50 PM95 °FExtremely hot.15 mph15%30.15 "Hg10 mi
2:10 PM95 °FExtremely hot.10 mph15%30.15 "Hg10 mi
1:50 PM97 °FExtremely hot.10 mph14%30.15 "Hg10 mi
1:10 PM95 °FExtremely hot.6 mph15%30.17 "Hg10 mi
12:50 PM95 °FExtremely hot.6 mph15%30.18 "Hg10 mi
12:10 PM91 °FHot.8 mph18%30.19 "Hg10 mi
11:50 AM97 °FExtremely hot.7 mph16%30.20 "Hg10 mi
11:10 AM91 °FHot.3 mph18%30.22 "Hg10 mi
10:50 AM91 °FHot.6 mph18%30.22 "Hg10 mi
10:10 AM91 °FHot.5 mph20%30.23 "Hg10 mi
9:50 AM93 °FExtremely hot.6 mph19%30.24 "Hg10 mi
9:10 AM86 °FPleasantly warm.3 mph24%30.25 "Hg10 mi
8:50 AM84 °FPleasantly warm.No wind25%30.25 "Hg10 mi
8:30 AM86 °FPleasantly warm.No wind24%30.25 "Hg10 mi
8:10 AM82 °FPleasantly warm.No wind25%30.25 "Hg10 mi
7:50 AM82 °FPleasantly warm.No wind26%30.25 "Hg10 mi
7:10 AM81 °FPleasantly warm.5 mph26%30.25 "Hg10 mi
6:50 AM77 °FPleasantly warm.8 mph30%30.23 "Hg10 mi
6:30 AM75 °FMild.12 mph31%30.23 "Hg10 mi
6:10 AM73 °FMild.12 mph33%30.22 "Hg10 mi
5:50 AM73 °FMild.12 mph33%30.22 "Hg10 mi
5:30 AM73 °FMild.13 mph33%30.22 "Hg10 mi
5:10 AM73 °FMild.10 mph33%30.22 "Hg10 mi
4:50 AM73 °FMild.10 mph33%30.22 "Hg10 mi
4:30 AM75 °FMild.8 mph31%30.21 "Hg10 mi
4:10 AM75 °FMild.3 mph31%30.21 "Hg10 mi
3:50 AM75 °FMild.7 mph31%30.21 "Hg10 mi
3:30 AM77 °FPleasantly warm.5 mph30%30.21 "Hg10 mi
3:10 AM77 °FPleasantly warm.6 mph30%30.21 "Hg10 mi
2:50 AM77 °FPleasantly warm.6 mph30%30.21 "Hg10 mi
2:30 AM77 °FPleasantly warm.No wind30%30.21 "Hg10 mi
2:10 AM77 °FPleasantly warm.5 mph30%30.21 "Hg10 mi
1:50 AM79 °FPleasantly warm.3 mph28%30.21 "Hg10 mi
1:10 AM79 °FPleasantly warm.3 mph28%30.20 "Hg10 mi
Weather by CustomWeather, © 2016

See weather overviewHow to use our weather pages